Flag for U.S.A. Weather past 2 weeks in Houston, Texas, U.S.A.

Now
63 °F

Scattered clouds.


Feels Like: 63 °F
Forecast: 43 / 69 °F
Wind: 13 mph from West

Location: Houston Hobby Airport

Current Time: Jan 25, 2015 at 12:23:05 PM

Latest Report: Jan 25, 2015 at 11:53 AM


Visibility: 10 mi

Pressure: 30.05 "Hg

Humidity: 41%

Dew point: 39 °F

Location of HoustonLocation

Historic Weather in Houston — Graph

°F

Houston temperature yesterday

Maximum temperature yesterday: 61 °F (at 2:53 PM)
Minimum temperature yesterday: 36 °F (at 6:53 AM)
Average temperature yesterday: 48 °F

Past Weeks' High & Low Weather Summary

 TemperatureHumidityPressure
High74 °F (Jan 20, 3:53 PM)100% (Jan 11, 4:53 AM)30.51 "Hg (Jan 11, 4:53 AM)
Low36 °F (Jan 16, 5:53 AM)24% (Jan 18, 3:53 PM)29.92 "Hg (Jan 20, 3:53 PM)
Average50 °F80%30.19 "Hg
* Reported Jan 10 10:53 AM — Jan 25 10:53 AM, Houston, Weather by CustomWeather, © 2014

Note: Actual official high and low records may vary slightly from our data, if they occured in-between our weather recording intervals... More about our weather records

Advertising

Houston weather history for previous 24 hours

 ConditionsComfort  
Time TempWeatherWind HumidityBarometerVisibility
10:53 AM
Jan 25
61 °FScattered clouds.12 mph46%30.06 "Hg10 mi
9:53 AM55 °FPassing clouds.8 mph57%30.05 "Hg10 mi
8:53 AM49 °FPassing clouds.7 mph71%30.05 "Hg10 mi
7:53 AM44 °FPassing clouds.7 mph85%30.03 "Hg10 mi
6:53 AM42 °FPassing clouds.6 mph89%30.05 "Hg10 mi
5:53 AM44 °FPassing clouds.6 mph89%30.04 "Hg10 mi
4:53 AM41 °FPassing clouds.6 mph96%30.05 "Hg10 mi
3:53 AM42 °FPassing clouds.No wind96%30.06 "Hg10 mi
2:53 AM43 °FPassing clouds.3 mph97%30.07 "Hg10 mi
1:53 AM44 °FPassing clouds.6 mph93%30.07 "Hg10 mi
12:53 AM45 °FPassing clouds.5 mph90%30.10 "Hg10 mi
11:53 PM
Jan 24
47 °FPassing clouds.6 mph86%30.10 "Hg10 mi
10:53 PM48 °FPassing clouds.7 mph83%30.11 "Hg10 mi
9:53 PM49 °FPassing clouds.6 mph69%30.11 "Hg10 mi
8:53 PM50 °FPassing clouds.7 mph66%30.12 "Hg10 mi
7:53 PM51 °FPassing clouds.6 mph66%30.11 "Hg10 mi
6:53 PM54 °FPassing clouds.6 mph62%30.12 "Hg10 mi
5:53 PM56 °FPassing clouds.7 mph55%30.12 "Hg10 mi
4:53 PM60 °FScattered clouds.10 mph46%30.13 "Hg10 mi
3:53 PM60 °FScattered clouds.12 mph46%30.14 "Hg10 mi
2:53 PM61 °FScattered clouds.10 mph42%30.14 "Hg10 mi
1:53 PM59 °FPartly sunny.12 mph46%30.16 "Hg10 mi
12:53 PM58 °FScattered clouds.8 mph50%30.19 "Hg10 mi
Weather by CustomWeather, © 2014

See weather overviewHow to use our weather pages